Year,Month,Day,Hour,Minute,Value (Times are PST for temperature in C)
2020,04,16,00,00,9.50
2020,04,16,00,01,9.50
2020,04,16,00,02,9.50
2020,04,16,00,03,9.50
2020,04,16,00,04,9.50
2020,04,16,00,05,9.50
2020,04,16,00,06,9.50
2020,04,16,00,07,9.50
2020,04,16,00,08,9.50
2020,04,16,00,09,9.50
2020,04,16,00,10,9.50
2020,04,16,00,11,9.40
2020,04,16,00,12,9.40
2020,04,16,00,13,9.40
2020,04,16,00,14,9.40
2020,04,16,00,15,9.40
2020,04,16,00,16,9.40
2020,04,16,00,17,9.40
2020,04,16,00,18,9.40
2020,04,16,00,19,9.40
2020,04,16,00,20,9.50
2020,04,16,00,21,9.50
2020,04,16,00,22,9.50
2020,04,16,00,23,9.50
2020,04,16,00,24,9.60
2020,04,16,00,25,9.60
2020,04,16,00,26,9.70
2020,04,16,00,27,9.70
2020,04,16,00,28,9.70
2020,04,16,00,29,9.80
2020,04,16,00,30,9.80
2020,04,16,00,31,9.80
2020,04,16,00,32,9.80
2020,04,16,00,33,9.80
2020,04,16,00,34,9.80
2020,04,16,00,35,9.80
2020,04,16,00,36,9.80
2020,04,16,00,37,9.80
2020,04,16,00,38,9.80
2020,04,16,00,39,9.80
2020,04,16,00,40,9.80
2020,04,16,00,41,9.70
2020,04,16,00,42,9.70
2020,04,16,00,43,9.70
2020,04,16,00,44,9.70
2020,04,16,00,45,9.70
2020,04,16,00,46,9.70
2020,04,16,00,47,9.70
2020,04,16,00,48,9.70
2020,04,16,00,49,9.70
2020,04,16,00,50,9.70
2020,04,16,00,51,9.70
2020,04,16,00,52,9.70
2020,04,16,00,53,9.80
2020,04,16,00,54,9.80
2020,04,16,00,55,9.80
2020,04,16,00,56,9.90
2020,04,16,00,57,9.90
2020,04,16,00,58,9.90
2020,04,16,00,59,10.10
2020,04,16,01,00,10.10
2020,04,16,01,01,10.10
2020,04,16,01,02,10.10
2020,04,16,01,03,10.10
2020,04,16,01,04,10.00
2020,04,16,01,05,9.90
2020,04,16,01,06,9.90
2020,04,16,01,07,9.80
2020,04,16,01,08,9.80
2020,04,16,01,09,9.70
2020,04,16,01,10,9.60
2020,04,16,01,11,9.50
2020,04,16,01,12,9.40
2020,04,16,01,13,9.30
2020,04,16,01,14,9.20
2020,04,16,01,15,9.20
2020,04,16,01,16,9.00
2020,04,16,01,17,9.00
2020,04,16,01,18,8.90
2020,04,16,01,19,8.80
2020,04,16,01,20,8.80
2020,04,16,01,21,8.70
2020,04,16,01,22,8.70
2020,04,16,01,23,8.70
2020,04,16,01,24,8.70
2020,04,16,01,25,8.70
2020,04,16,01,26,8.70
2020,04,16,01,27,8.70
2020,04,16,01,28,8.70
2020,04,16,01,29,8.60
2020,04,16,01,30,8.60
2020,04,16,01,31,8.60
2020,04,16,01,32,8.50
2020,04,16,01,33,8.50
2020,04,16,01,34,8.50
2020,04,16,01,35,8.40
2020,04,16,01,36,8.30
2020,04,16,01,37,8.30
2020,04,16,01,38,8.30
2020,04,16,01,39,8.20
2020,04,16,01,40,8.20
2020,04,16,01,41,8.20
2020,04,16,01,42,8.20
2020,04,16,01,43,8.10
2020,04,16,01,44,8.10
2020,04,16,01,45,8.00
2020,04,16,01,46,8.00
2020,04,16,01,47,8.00
2020,04,16,01,48,7.90
2020,04,16,01,49,7.90
2020,04,16,01,50,7.90
2020,04,16,01,51,7.80
2020,04,16,01,52,7.80
2020,04,16,01,53,7.80
2020,04,16,01,54,7.80
2020,04,16,01,55,7.80
2020,04,16,01,56,7.80
2020,04,16,01,57,7.80
2020,04,16,01,58,7.80
2020,04,16,01,59,7.80
2020,04,16,02,00,7.80
2020,04,16,02,01,7.80
2020,04,16,02,02,7.80
2020,04,16,02,03,7.80
2020,04,16,02,04,7.90
2020,04,16,02,05,7.90
2020,04,16,02,06,8.00
2020,04,16,02,07,8.00
2020,04,16,02,08,8.00
2020,04,16,02,09,8.10
2020,04,16,02,10,8.20
2020,04,16,02,11,8.30
2020,04,16,02,12,8.40
2020,04,16,02,13,8.50
2020,04,16,02,14,8.60
2020,04,16,02,15,8.60
2020,04,16,02,16,8.70
2020,04,16,02,17,8.70
2020,04,16,02,18,8.70
2020,04,16,02,19,8.70
2020,04,16,02,20,8.80
2020,04,16,02,21,8.80
2020,04,16,02,22,8.90
2020,04,16,02,23,9.00
2020,04,16,02,24,9.00
2020,04,16,02,25,9.20
2020,04,16,02,26,9.20
2020,04,16,02,27,9.30
2020,04,16,02,28,9.40
2020,04,16,02,29,9.50
2020,04,16,02,30,9.60
2020,04,16,02,31,9.70
2020,04,16,02,32,9.70
2020,04,16,02,33,9.70
2020,04,16,02,34,9.70
2020,04,16,02,35,9.70
2020,04,16,02,36,9.70
2020,04,16,02,37,9.80
2020,04,16,02,38,9.90
2020,04,16,02,39,9.90
2020,04,16,02,40,10.00
2020,04,16,02,41,10.10
2020,04,16,02,42,10.10
2020,04,16,02,43,10.10
2020,04,16,02,44,10.10
2020,04,16,02,45,10.10
2020,04,16,02,46,10.00
2020,04,16,02,47,9.90
2020,04,16,02,48,9.90
2020,04,16,02,49,9.90
2020,04,16,02,50,9.90
2020,04,16,02,51,9.80
2020,04,16,02,52,9.80
2020,04,16,02,53,9.90
2020,04,16,02,54,9.90
2020,04,16,02,55,9.90
2020,04,16,02,56,9.80
2020,04,16,02,57,9.90
2020,04,16,02,58,9.90
2020,04,16,02,59,9.90
2020,04,16,03,00,9.90
2020,04,16,03,01,9.90
2020,04,16,03,02,9.80
2020,04,16,03,03,9.70
2020,04,16,03,04,9.70
2020,04,16,03,05,9.60
2020,04,16,03,06,9.50
2020,04,16,03,07,9.40
2020,04,16,03,08,9.40
2020,04,16,03,09,9.30
2020,04,16,03,10,9.30
2020,04,16,03,11,9.30
2020,04,16,03,12,9.30
2020,04,16,03,13,9.40
2020,04,16,03,14,9.40
2020,04,16,03,15,9.40
2020,04,16,03,16,9.30
2020,04,16,03,17,9.30
2020,04,16,03,18,9.20
2020,04,16,03,19,9.20
2020,04,16,03,20,9.20
2020,04,16,03,21,9.10
2020,04,16,03,22,9.00
2020,04,16,03,23,9.00
2020,04,16,03,24,8.80
2020,04,16,03,25,8.70
2020,04,16,03,26,8.60
2020,04,16,03,27,8.40
2020,04,16,03,28,8.30
2020,04,16,03,29,8.20
2020,04,16,03,30,8.10
2020,04,16,03,31,8.00
2020,04,16,03,32,8.00
2020,04,16,03,33,7.90
2020,04,16,03,34,7.90
2020,04,16,03,35,7.90
2020,04,16,03,36,7.90
2020,04,16,03,37,8.00
2020,04,16,03,38,8.00
2020,04,16,03,39,8.10
2020,04,16,03,40,8.10
2020,04,16,03,41,8.20
2020,04,16,03,42,8.30
2020,04,16,03,43,8.50
2020,04,16,03,44,8.60
2020,04,16,03,45,8.70
2020,04,16,03,46,8.70
2020,04,16,03,47,8.70
2020,04,16,03,48,8.70
2020,04,16,03,49,8.70
2020,04,16,03,50,8.70
2020,04,16,03,51,8.60
2020,04,16,03,52,8.50
2020,04,16,03,53,8.50
2020,04,16,03,54,8.30
2020,04,16,03,55,8.20
2020,04,16,03,56,8.00
2020,04,16,03,57,7.90
2020,04,16,03,58,7.80
2020,04,16,03,59,7.70
2020,04,16,04,00,7.60
2020,04,16,04,01,7.60
2020,04,16,04,02,7.50
2020,04,16,04,03,7.50
2020,04,16,04,04,7.50
2020,04,16,04,05,7.60
2020,04,16,04,06,7.80
2020,04,16,04,07,7.90
2020,04,16,04,08,8.00
2020,04,16,04,09,8.00
2020,04,16,04,10,8.10
2020,04,16,04,11,8.10
2020,04,16,04,12,8.20
2020,04,16,04,13,8.10
2020,04,16,04,14,8.10
2020,04,16,04,15,8.00
2020,04,16,04,16,7.90
2020,04,16,04,17,7.90
2020,04,16,04,18,7.80
2020,04,16,04,19,7.80
2020,04,16,04,20,7.80
2020,04,16,04,21,7.70
2020,04,16,04,22,7.70
2020,04,16,04,23,7.70
2020,04,16,04,24,7.70
2020,04,16,04,25,7.70
2020,04,16,04,26,7.70
2020,04,16,04,27,7.70
2020,04,16,04,28,7.70
2020,04,16,04,29,7.60
2020,04,16,04,30,7.60
2020,04,16,04,31,7.50
2020,04,16,04,32,7.50
2020,04,16,04,33,7.40
2020,04,16,04,34,7.30
2020,04,16,04,35,7.30
2020,04,16,04,36,7.30
2020,04,16,04,37,7.30
2020,04,16,04,38,7.30
2020,04,16,04,39,7.30
2020,04,16,04,40,7.30
2020,04,16,04,41,7.30
2020,04,16,04,42,7.30
2020,04,16,04,43,7.30
2020,04,16,04,44,7.20
2020,04,16,04,45,7.10
2020,04,16,04,46,7.00
2020,04,16,04,47,6.90
2020,04,16,04,48,6.80
2020,04,16,04,49,6.80
2020,04,16,04,50,6.80
2020,04,16,04,51,6.80
2020,04,16,04,52,6.80
2020,04,16,04,53,6.80
2020,04,16,04,54,6.80
2020,04,16,04,55,6.80
2020,04,16,04,56,6.90
2020,04,16,04,57,7.00
2020,04,16,04,58,7.00
2020,04,16,04,59,7.00
2020,04,16,05,00,7.10
2020,04,16,05,01,7.10
2020,04,16,05,02,7.10
2020,04,16,05,03,7.10
2020,04,16,05,04,7.10
2020,04,16,05,05,7.10
2020,04,16,05,06,7.10
2020,04,16,05,07,7.10
2020,04,16,05,08,7.00
2020,04,16,05,09,7.00
2020,04,16,05,10,6.90
2020,04,16,05,11,6.90
2020,04,16,05,12,6.90
2020,04,16,05,13,6.90
2020,04,16,05,14,7.00
2020,04,16,05,15,7.00
2020,04,16,05,16,7.00
2020,04,16,05,17,7.10
2020,04,16,05,18,7.10
2020,04,16,05,19,7.20
2020,04,16,05,20,7.20
2020,04,16,05,21,7.20
2020,04,16,05,22,7.30
2020,04,16,05,23,7.30
2020,04,16,05,24,7.30
2020,04,16,05,25,7.30
2020,04,16,05,26,7.30
2020,04,16,05,27,7.40
2020,04,16,05,28,7.50
2020,04,16,05,29,7.50
2020,04,16,05,30,7.60
2020,04,16,05,31,7.60
2020,04,16,05,32,7.70
2020,04,16,05,33,7.70
2020,04,16,05,34,7.70
2020,04,16,05,35,7.70
2020,04,16,05,36,7.60
2020,04,16,05,37,7.60
2020,04,16,05,38,7.60
2020,04,16,05,39,7.60
2020,04,16,05,40,7.60
2020,04,16,05,41,7.60
2020,04,16,05,42,7.60
2020,04,16,05,43,7.70
2020,04,16,05,44,7.70
2020,04,16,05,45,7.70
2020,04,16,05,46,7.70
2020,04,16,05,47,7.70
2020,04,16,05,48,7.70
2020,04,16,05,49,7.80
2020,04,16,05,50,7.80
2020,04,16,05,51,7.80
2020,04,16,05,52,7.90
2020,04,16,05,53,7.90
2020,04,16,05,54,7.90
2020,04,16,05,55,7.90
2020,04,16,05,56,7.90
2020,04,16,05,57,7.90
2020,04,16,05,58,7.90
2020,04,16,05,59,7.90
2020,04,16,06,00,7.90
2020,04,16,06,01,7.80
2020,04,16,06,02,7.80
2020,04,16,06,03,7.80
2020,04,16,06,04,7.80
2020,04,16,06,05,7.70
2020,04,16,06,06,7.60
2020,04,16,06,07,7.60
2020,04,16,06,08,7.60
2020,04,16,06,09,7.60
2020,04,16,06,10,7.60
2020,04,16,06,11,7.60
2020,04,16,06,12,7.60
2020,04,16,06,13,7.60
2020,04,16,06,14,7.60
2020,04,16,06,15,7.60
2020,04,16,06,16,7.60
2020,04,16,06,17,7.70
2020,04,16,06,18,7.70
2020,04,16,06,19,7.70
2020,04,16,06,20,7.70
2020,04,16,06,21,7.70
2020,04,16,06,22,7.70
2020,04,16,06,23,7.70
2020,04,16,06,24,7.70
2020,04,16,06,25,7.80
2020,04,16,06,26,7.80
2020,04,16,06,27,7.80
2020,04,16,06,28,7.80
2020,04,16,06,29,7.80
2020,04,16,06,30,7.80
2020,04,16,06,31,7.80
2020,04,16,06,32,7.90
2020,04,16,06,33,7.90
2020,04,16,06,34,8.00
2020,04,16,06,35,8.00
2020,04,16,06,36,8.10
2020,04,16,06,37,8.20
2020,04,16,06,38,8.20
2020,04,16,06,39,8.20
2020,04,16,06,40,8.30
2020,04,16,06,41,8.30
2020,04,16,06,42,8.20
2020,04,16,06,43,8.20
2020,04,16,06,44,8.20
2020,04,16,06,45,8.20
2020,04,16,06,46,8.30
2020,04,16,06,47,8.30
2020,04,16,06,48,8.30
2020,04,16,06,49,8.40
2020,04,16,06,50,8.50
2020,04,16,06,51,8.50
2020,04,16,06,52,8.60
2020,04,16,06,53,8.70
2020,04,16,06,54,8.70
2020,04,16,06,55,8.70
2020,04,16,06,56,8.80
2020,04,16,06,57,8.90
2020,04,16,06,58,8.90
2020,04,16,06,59,9.00
2020,04,16,07,00,9.10
2020,04,16,07,01,9.20
2020,04,16,07,02,9.20
2020,04,16,07,03,9.30
2020,04,16,07,04,9.30
2020,04,16,07,05,9.40
2020,04,16,07,06,9.40
2020,04,16,07,07,9.40
2020,04,16,07,08,9.40
2020,04,16,07,09,9.40
2020,04,16,07,10,9.50
2020,04,16,07,11,9.50
2020,04,16,07,12,9.60
2020,04,16,07,13,9.60
2020,04,16,07,14,9.70
2020,04,16,07,15,9.70
2020,04,16,07,16,9.80
2020,04,16,07,17,9.90
2020,04,16,07,18,10.10
2020,04,16,07,19,10.10
2020,04,16,07,20,10.20
2020,04,16,07,21,10.30
2020,04,16,07,22,10.30
2020,04,16,07,23,10.40
2020,04,16,07,24,10.40
2020,04,16,07,25,10.50
2020,04,16,07,26,10.60
2020,04,16,07,27,10.60
2020,04,16,07,28,10.60
2020,04,16,07,29,10.60
2020,04,16,07,30,10.70
2020,04,16,07,31,10.70
2020,04,16,07,32,10.80
2020,04,16,07,33,10.80
2020,04,16,07,34,10.90
2020,04,16,07,35,10.90
2020,04,16,07,36,11.10
2020,04,16,07,37,11.10
2020,04,16,07,38,11.20
2020,04,16,07,39,11.30
2020,04,16,07,40,11.30
2020,04,16,07,41,11.40
2020,04,16,07,42,11.40
2020,04,16,07,43,11.50
2020,04,16,07,44,11.60
2020,04,16,07,45,11.60
2020,04,16,07,46,11.60
2020,04,16,07,47,11.70
2020,04,16,07,48,11.70
2020,04,16,07,49,11.80
2020,04,16,07,50,11.80
2020,04,16,07,51,11.80
2020,04,16,07,52,11.90
2020,04,16,07,53,11.90
2020,04,16,07,54,12.00
2020,04,16,07,55,12.00
2020,04,16,07,56,12.10
2020,04,16,07,57,12.10
2020,04,16,07,58,12.20
2020,04,16,07,59,12.30
2020,04,16,08,00,12.30
2020,04,16,08,01,12.30
2020,04,16,08,02,12.30
2020,04,16,08,03,12.40
2020,04,16,08,04,12.40
2020,04,16,08,05,12.40
2020,04,16,08,06,12.50
2020,04,16,08,07,12.50
2020,04,16,08,08,12.50
2020,04,16,08,09,12.60
2020,04,16,08,10,12.60
2020,04,16,08,11,12.60
2020,04,16,08,12,12.60
2020,04,16,08,13,12.70
2020,04,16,08,14,12.70
2020,04,16,08,15,12.70
2020,04,16,08,16,12.70
2020,04,16,08,17,12.70
2020,04,16,08,18,12.80
2020,04,16,08,19,12.80
2020,04,16,08,20,12.80
2020,04,16,08,21,12.80
2020,04,16,08,22,12.80
2020,04,16,08,23,12.80
2020,04,16,08,24,12.80
2020,04,16,08,25,12.80
2020,04,16,08,26,12.80
2020,04,16,08,27,12.90
2020,04,16,08,28,12.90
2020,04,16,08,29,12.90
2020,04,16,08,30,13.00
2020,04,16,08,31,13.00
2020,04,16,08,32,13.00
2020,04,16,08,33,13.00
2020,04,16,08,34,13.00
2020,04,16,08,35,12.90
2020,04,16,08,36,12.90
2020,04,16,08,37,12.90
2020,04,16,08,38,12.90
2020,04,16,08,39,12.90
2020,04,16,08,40,12.80
2020,04,16,08,41,12.80
2020,04,16,08,42,12.80
2020,04,16,08,43,12.80
2020,04,16,08,44,12.80
2020,04,16,08,45,12.80
2020,04,16,08,46,12.80
2020,04,16,08,47,12.80
2020,04,16,08,48,12.80
2020,04,16,08,49,12.80
2020,04,16,08,50,12.80
2020,04,16,08,51,12.80
2020,04,16,08,52,12.80
2020,04,16,08,53,12.80
2020,04,16,08,54,12.80
2020,04,16,08,55,12.80
2020,04,16,08,56,12.80
2020,04,16,08,57,12.80
2020,04,16,08,58,12.80
2020,04,16,08,59,12.90
2020,04,16,09,00,12.90
2020,04,16,09,01,12.90
2020,04,16,09,02,13.00
2020,04,16,09,03,13.00
2020,04,16,09,04,13.00
2020,04,16,09,05,13.00
2020,04,16,09,06,13.00
2020,04,16,09,07,13.00
2020,04,16,09,08,13.00
2020,04,16,09,09,13.00
2020,04,16,09,10,13.10
2020,04,16,09,11,13.20
2020,04,16,09,12,13.20
2020,04,16,09,13,13.20
2020,04,16,09,14,13.20
2020,04,16,09,15,13.20
2020,04,16,09,16,13.30
2020,04,16,09,17,13.30
2020,04,16,09,18,13.30
2020,04,16,09,19,13.40
2020,04,16,09,20,13.40
2020,04,16,09,21,13.40
2020,04,16,09,22,13.50
2020,04,16,09,23,13.50
2020,04,16,09,24,13.50
2020,04,16,09,25,13.50
2020,04,16,09,26,13.40
2020,04,16,09,27,13.40
2020,04,16,09,28,13.40
2020,04,16,09,29,13.40
2020,04,16,09,30,13.40
2020,04,16,09,31,13.40
2020,04,16,09,32,13.40
2020,04,16,09,33,13.50
2020,04,16,09,34,13.50
2020,04,16,09,35,13.50
2020,04,16,09,36,13.60
2020,04,16,09,37,13.60
2020,04,16,09,38,13.60
2020,04,16,09,39,13.60
2020,04,16,09,40,13.50
2020,04,16,09,41,13.50
2020,04,16,09,42,13.40
2020,04,16,09,43,13.40
2020,04,16,09,44,13.40
2020,04,16,09,45,13.40
2020,04,16,09,46,13.50
2020,04,16,09,47,13.50
2020,04,16,09,48,13.50
2020,04,16,09,49,13.50
2020,04,16,09,50,13.50
2020,04,16,09,51,13.50
2020,04,16,09,52,13.50
2020,04,16,09,53,13.50
2020,04,16,09,54,13.50
2020,04,16,09,55,13.40
2020,04,16,09,56,13.30
2020,04,16,09,57,13.30
2020,04,16,09,58,13.30
2020,04,16,09,59,13.30
2020,04,16,10,00,13.40
2020,04,16,10,01,13.40
2020,04,16,10,02,13.40
2020,04,16,10,03,13.40
2020,04,16,10,04,13.40
2020,04,16,10,05,13.50
2020,04,16,10,06,13.50
2020,04,16,10,07,13.60
2020,04,16,10,08,13.70
2020,04,16,10,09,13.80
2020,04,16,10,10,13.90
2020,04,16,10,11,14.00
2020,04,16,10,12,14.00
2020,04,16,10,13,14.10
2020,04,16,10,14,14.20
2020,04,16,10,15,14.20
2020,04,16,10,16,14.30
2020,04,16,10,17,14.30
2020,04,16,10,18,14.40
2020,04,16,10,19,14.40
2020,04,16,10,20,14.50
2020,04,16,10,21,14.50
2020,04,16,10,22,14.50
2020,04,16,10,23,14.40
2020,04,16,10,24,14.40
2020,04,16,10,25,14.40
2020,04,16,10,26,14.40
2020,04,16,10,27,14.40
2020,04,16,10,28,14.40
2020,04,16,10,29,14.40
2020,04,16,10,30,14.50
2020,04,16,10,31,14.50
2020,04,16,10,32,14.60
2020,04,16,10,33,14.60
2020,04,16,10,34,14.60
2020,04,16,10,35,14.70
2020,04,16,10,36,14.70
2020,04,16,10,37,14.70
2020,04,16,10,38,14.60
2020,04,16,10,39,14.60
2020,04,16,10,40,14.60
2020,04,16,10,41,14.50
2020,04,16,10,42,14.50
2020,04,16,10,43,14.60
2020,04,16,10,44,14.70
2020,04,16,10,45,14.70
2020,04,16,10,46,14.70
2020,04,16,10,47,14.60
2020,04,16,10,48,14.60
2020,04,16,10,49,14.50
2020,04,16,10,50,14.50
2020,04,16,10,51,14.50
2020,04,16,10,52,14.60
2020,04,16,10,53,14.60
2020,04,16,10,54,14.70
2020,04,16,10,55,14.80
2020,04,16,10,56,14.70
2020,04,16,10,57,14.70
2020,04,16,10,58,14.60
2020,04,16,10,59,14.70
2020,04,16,11,00,14.70
2020,04,16,11,01,14.70
2020,04,16,11,02,14.80
2020,04,16,11,03,14.80
2020,04,16,11,04,14.80
2020,04,16,11,05,14.80
2020,04,16,11,06,14.70
2020,04,16,11,07,14.70
2020,04,16,11,08,14.70
2020,04,16,11,09,14.70
2020,04,16,11,10,14.80
2020,04,16,11,11,14.80
2020,04,16,11,12,14.90
2020,04,16,11,13,14.90
2020,04,16,11,14,14.90
2020,04,16,11,15,14.90
2020,04,16,11,16,14.90
2020,04,16,11,17,14.90
2020,04,16,11,18,15.00
2020,04,16,11,19,15.00
2020,04,16,11,20,15.10
2020,04,16,11,21,15.20
2020,04,16,11,22,15.30
2020,04,16,11,23,15.40
2020,04,16,11,24,15.50
2020,04,16,11,25,15.60
2020,04,16,11,26,15.70
2020,04,16,11,27,15.70
2020,04,16,11,28,15.60
2020,04,16,11,29,15.50
2020,04,16,11,30,15.50
2020,04,16,11,31,15.50
2020,04,16,11,32,15.50
2020,04,16,11,33,15.50
2020,04,16,11,34,15.50
2020,04,16,11,35,15.40
2020,04,16,11,36,15.50
2020,04,16,11,37,15.50
2020,04,16,11,38,15.50
2020,04,16,11,39,15.50
2020,04,16,11,40,15.50
2020,04,16,11,41,15.50
2020,04,16,11,42,15.50
2020,04,16,11,43,15.50
2020,04,16,11,44,15.60
2020,04,16,11,45,15.70
2020,04,16,11,46,15.80
2020,04,16,11,47,15.90
2020,04,16,11,48,16.10
2020,04,16,11,49,16.10
2020,04,16,11,50,16.10
2020,04,16,11,51,16.20
2020,04,16,11,52,16.20
2020,04,16,11,53,16.20
2020,04,16,11,54,16.20
2020,04,16,11,55,16.30
2020,04,16,11,56,16.40
2020,04,16,11,57,16.40
2020,04,16,11,58,16.40
2020,04,16,11,59,16.50
2020,04,16,12,00,16.60
2020,04,16,12,01,16.70
2020,04,16,12,02,16.70
2020,04,16,12,03,16.70
2020,04,16,12,04,16.70
2020,04,16,12,05,16.70
2020,04,16,12,06,16.70
2020,04,16,12,07,16.80
2020,04,16,12,08,16.80
2020,04,16,12,09,16.70
2020,04,16,12,10,16.70
2020,04,16,12,11,16.70
2020,04,16,12,12,16.70
2020,04,16,12,13,16.70
2020,04,16,12,14,16.60
2020,04,16,12,15,16.60
2020,04,16,12,16,16.70
2020,04,16,12,17,16.80
2020,04,16,12,18,16.80
2020,04,16,12,19,16.90
2020,04,16,12,20,16.90
2020,04,16,12,21,16.90
2020,04,16,12,22,16.90
2020,04,16,12,23,16.90
2020,04,16,12,24,17.00
2020,04,16,12,25,17.00
2020,04,16,12,26,17.00
2020,04,16,12,27,16.90
2020,04,16,12,28,17.00
2020,04,16,12,29,17.00
2020,04,16,12,30,17.00
2020,04,16,12,31,17.00
2020,04,16,12,32,16.90
2020,04,16,12,33,16.80
2020,04,16,12,34,16.80
2020,04,16,12,35,16.80
2020,04,16,12,36,16.70
2020,04,16,12,37,16.70
2020,04,16,12,38,16.70
2020,04,16,12,39,16.70
2020,04,16,12,40,16.60
2020,04,16,12,41,16.70
2020,04,16,12,42,16.70
2020,04,16,12,43,16.60
2020,04,16,12,44,16.50
2020,04,16,12,45,16.40
2020,04,16,12,46,16.40
2020,04,16,12,47,16.40
2020,04,16,12,48,16.40
2020,04,16,12,49,16.40
2020,04,16,12,50,16.40
2020,04,16,12,51,16.40
2020,04,16,12,52,16.60
2020,04,16,12,53,16.70
2020,04,16,12,54,16.70
2020,04,16,12,55,16.70
2020,04,16,12,56,16.80
2020,04,16,12,57,16.80
2020,04,16,12,58,16.90
2020,04,16,12,59,16.90
2020,04,16,13,00,16.90
2020,04,16,13,01,16.90
2020,04,16,13,02,16.80
2020,04,16,13,03,16.70
2020,04,16,13,04,16.70
2020,04,16,13,05,16.80
2020,04,16,13,06,16.90
2020,04,16,13,07,16.90
2020,04,16,13,08,16.80
2020,04,16,13,09,16.80
2020,04,16,13,10,16.80
2020,04,16,13,11,16.90
2020,04,16,13,12,16.80
2020,04,16,13,13,16.80
2020,04,16,13,14,16.90
2020,04,16,13,15,16.90
2020,04,16,13,16,16.90
2020,04,16,13,17,17.00
2020,04,16,13,18,16.90
2020,04,16,13,19,17.00
2020,04,16,13,20,17.00
2020,04,16,13,21,17.10
2020,04,16,13,22,17.00
2020,04,16,13,23,17.00
2020,04,16,13,24,17.00
2020,04,16,13,25,17.00
2020,04,16,13,26,16.90
2020,04,16,13,27,16.90
2020,04,16,13,28,16.90
2020,04,16,13,29,17.00
2020,04,16,13,30,17.00
2020,04,16,13,31,17.00
2020,04,16,13,32,17.00
2020,04,16,13,33,17.00
2020,04,16,13,34,17.10
2020,04,16,13,35,17.10
2020,04,16,13,36,17.30
2020,04,16,13,37,17.40
2020,04,16,13,38,17.50
2020,04,16,13,39,17.50
2020,04,16,13,40,17.70
2020,04,16,13,41,17.70
2020,04,16,13,42,17.70
2020,04,16,13,43,17.70
2020,04,16,13,44,17.70
2020,04,16,13,45,17.70
2020,04,16,13,46,17.80
2020,04,16,13,47,17.80
2020,04,16,13,48,17.80
2020,04,16,13,49,17.80
2020,04,16,13,50,17.80
2020,04,16,13,51,17.70
2020,04,16,13,52,17.70
2020,04,16,13,53,17.70
2020,04,16,13,54,17.70
2020,04,16,13,55,17.70
2020,04,16,13,56,17.60
2020,04,16,13,57,17.60
2020,04,16,13,58,17.60
2020,04,16,13,59,17.70
2020,04,16,14,00,17.70
2020,04,16,14,01,17.90
2020,04,16,14,02,17.90
2020,04,16,14,03,18.00
2020,04,16,14,04,18.10
2020,04,16,14,05,18.00
2020,04,16,14,06,18.00
2020,04,16,14,07,18.00
2020,04,16,14,08,17.90
2020,04,16,14,09,17.90
2020,04,16,14,10,18.00
2020,04,16,14,11,18.10
2020,04,16,14,12,18.20
2020,04,16,14,13,18.10
2020,04,16,14,14,18.20
2020,04,16,14,15,18.20
2020,04,16,14,16,18.30
2020,04,16,14,17,18.20
2020,04,16,14,18,18.20
2020,04,16,14,19,18.20
2020,04,16,14,20,18.10
2020,04,16,14,21,18.10
2020,04,16,14,22,18.10
2020,04,16,14,23,18.20
2020,04,16,14,24,18.20
2020,04,16,14,25,18.20
2020,04,16,14,26,18.20
2020,04,16,14,27,18.30
2020,04,16,14,28,18.20
2020,04,16,14,29,18.20
2020,04,16,14,30,18.20
2020,04,16,14,31,18.20
2020,04,16,14,32,18.30
2020,04,16,14,33,18.30
2020,04,16,14,34,18.30
2020,04,16,14,35,18.30
2020,04,16,14,36,18.20
2020,04,16,14,37,18.20
2020,04,16,14,38,18.00
2020,04,16,14,39,17.80
2020,04,16,14,40,17.70
2020,04,16,14,41,17.50
2020,04,16,14,42,17.50
2020,04,16,14,43,17.70
2020,04,16,14,44,17.80
2020,04,16,14,45,17.90
2020,04,16,14,46,18.00
2020,04,16,14,47,18.10
2020,04,16,14,48,18.20
2020,04,16,14,49,18.20
2020,04,16,14,50,18.20
2020,04,16,14,51,18.20
2020,04,16,14,52,18.20
2020,04,16,14,53,18.20
2020,04,16,14,54,18.10
2020,04,16,14,55,18.10
2020,04,16,14,56,18.10
2020,04,16,14,57,18.10
2020,04,16,14,58,18.10
2020,04,16,14,59,18.20
2020,04,16,15,00,18.30
2020,04,16,15,01,18.30
2020,04,16,15,02,18.20
2020,04,16,15,03,18.00
2020,04,16,15,04,17.90
2020,04,16,15,05,17.90
2020,04,16,15,06,17.90
2020,04,16,15,07,17.90
2020,04,16,15,08,17.90
2020,04,16,15,09,17.90
2020,04,16,15,10,18.10
2020,04,16,15,11,18.20
2020,04,16,15,12,18.20
2020,04,16,15,13,18.20
2020,04,16,15,14,18.00
2020,04,16,15,15,17.90
2020,04,16,15,16,17.90
2020,04,16,15,17,17.80
2020,04,16,15,18,17.80
2020,04,16,15,19,17.80
2020,04,16,15,20,17.90
2020,04,16,15,21,17.90
2020,04,16,15,22,17.70
2020,04,16,15,23,17.70
2020,04,16,15,24,17.70
2020,04,16,15,25,17.80
2020,04,16,15,26,17.90
2020,04,16,15,27,18.00
2020,04,16,15,28,18.10
2020,04,16,15,29,18.20
2020,04,16,15,30,18.20
2020,04,16,15,31,18.30
2020,04,16,15,32,18.40
2020,04,16,15,33,18.60
2020,04,16,15,34,18.70
2020,04,16,15,35,18.70
2020,04,16,15,36,18.80
2020,04,16,15,37,18.90
2020,04,16,15,38,18.90
2020,04,16,15,39,19.00
2020,04,16,15,40,19.10
2020,04,16,15,41,19.10
2020,04,16,15,42,19.10
2020,04,16,15,43,19.10
2020,04,16,15,44,19.10
2020,04,16,15,45,19.00
2020,04,16,15,46,19.00
2020,04,16,15,47,19.10
2020,04,16,15,48,19.10
2020,04,16,15,49,19.10
2020,04,16,15,50,19.10
2020,04,16,15,51,19.20
2020,04,16,15,52,19.10
2020,04,16,15,53,19.20
2020,04,16,15,54,19.20
2020,04,16,15,55,19.30
2020,04,16,15,56,19.30
2020,04,16,15,57,19.30
2020,04,16,15,58,19.30
2020,04,16,15,59,19.30
2020,04,16,16,00,19.30
2020,04,16,16,01,19.30
2020,04,16,16,02,19.30
2020,04,16,16,03,19.30
2020,04,16,16,04,19.40
2020,04,16,16,05,19.20
2020,04,16,16,06,18.90
2020,04,16,16,07,18.70
2020,04,16,16,08,18.50
2020,04,16,16,09,18.50
2020,04,16,16,10,18.40
2020,04,16,16,11,18.50
2020,04,16,16,12,18.50
2020,04,16,16,13,18.50
2020,04,16,16,14,18.30
2020,04,16,16,15,18.20
2020,04,16,16,16,18.20
2020,04,16,16,17,18.10
2020,04,16,16,18,18.10
2020,04,16,16,19,18.10
2020,04,16,16,20,18.20
2020,04,16,16,21,18.20
2020,04,16,16,22,18.10
2020,04,16,16,23,18.10
2020,04,16,16,24,18.20
2020,04,16,16,25,18.20
2020,04,16,16,26,18.20
2020,04,16,16,27,18.20
2020,04,16,16,28,18.40
2020,04,16,16,29,18.50
2020,04,16,16,30,18.60
2020,04,16,16,31,18.60
2020,04,16,16,32,18.60
2020,04,16,16,33,18.50
2020,04,16,16,34,18.50
2020,04,16,16,35,18.60
2020,04,16,16,36,18.70
2020,04,16,16,37,18.70
2020,04,16,16,38,18.70
2020,04,16,16,39,18.90
2020,04,16,16,40,18.90
2020,04,16,16,41,19.00
2020,04,16,16,42,19.10
2020,04,16,16,43,19.10
2020,04,16,16,44,19.10
2020,04,16,16,45,19.10
2020,04,16,16,46,19.00
2020,04,16,16,47,18.90
2020,04,16,16,48,18.90
2020,04,16,16,49,18.80
2020,04,16,16,50,18.80
2020,04,16,16,51,18.80
2020,04,16,16,52,18.80
2020,04,16,16,53,18.80
2020,04,16,16,54,18.90
2020,04,16,16,55,18.90
2020,04,16,16,56,18.90
2020,04,16,16,57,18.90
2020,04,16,16,58,19.00
2020,04,16,16,59,19.10
2020,04,16,17,00,19.00
2020,04,16,17,01,19.10
2020,04,16,17,02,19.10
2020,04,16,17,03,19.10
2020,04,16,17,04,19.10
2020,04,16,17,05,19.10
2020,04,16,17,06,19.20
2020,04,16,17,07,19.20
2020,04,16,17,08,19.20
2020,04,16,17,09,19.20
2020,04,16,17,10,19.20
2020,04,16,17,11,19.20
2020,04,16,17,12,19.10
2020,04,16,17,13,19.00
2020,04,16,17,14,18.90
2020,04,16,17,15,18.70
2020,04,16,17,16,18.60
2020,04,16,17,17,18.50
2020,04,16,17,18,18.40
2020,04,16,17,19,18.40
2020,04,16,17,20,18.30
2020,04,16,17,21,18.20
2020,04,16,17,22,18.20
2020,04,16,17,23,18.20
2020,04,16,17,24,18.30
2020,04,16,17,25,18.30
2020,04,16,17,26,18.30
2020,04,16,17,27,18.40
2020,04,16,17,28,18.50
2020,04,16,17,29,18.60
2020,04,16,17,30,18.70
2020,04,16,17,31,18.80
2020,04,16,17,32,18.90
2020,04,16,17,33,18.90
2020,04,16,17,34,18.90
2020,04,16,17,35,18.80
2020,04,16,17,36,18.80
2020,04,16,17,37,18.80